{"data":{"norad_id":62426,"epoch":"2026-05-24T23:13:07.317120Z","epoch_age_seconds":77882,"freshness":"FRESH","line1":"1 62426U 24249T   26144.96744580  .00014232  00000+0  52557-3 0  9999","line2":"2 62426  42.9970 243.7861 0001052 272.7674  87.3057 15.27589066 79473","mean_motion":15.27589066,"eccentricity":0.0001052,"inclination_deg":42.997,"raan_deg":243.7861,"arg_perigee_deg":272.7674,"mean_anomaly_deg":87.3057,"bstar":0.00052557,"rev_number":7947,"period_min":94.266189255377,"perigee_km":482.30015538697,"apogee_km":483.7437432299,"semimajor_km":6861.1589493084,"source":"CELESTRAK","updated_at":"2026-05-25T13:38:19.655715Z"}}